GW1567 Weather Reports


time (UTC)temp
C
wind
direction
speed
KPH
gust
KPH
rain 1hr
cm
rain 24hr
cm
rain mn
cm
humidity
%
barometer
mb
20260510100809 20 8 0.0 0.0 0.00 0.00 0.00 99 1015.0
20260510100307 20 7 0.0 0.0 0.00 0.00 0.00 99 1014.8
20260510095802 20 358 0.0 0.0 0.00 0.00 0.00 99 1014.7
20260510095257 20 354 0.0 0.0 0.00 0.00 0.00 99 1014.7
20260510094751 20 8 0.0 0.0 0.00 0.00 0.00 99 1014.6
20260510094246 20 8 0.0 0.0 0.00 0.00 0.00 99 1014.6
20260510093742 20 8 0.0 0.0 0.00 0.00 0.00 99 1014.4
20260510093240 20 13 0.0 0.0 0.00 0.00 0.00 99 1014.5
20260510092736 20 13 0.0 0.0 0.00 0.00 0.00 99 1014.4
20260510092232 20 20 0.0 0.0 0.00 0.00 0.00 99 1014.2
20260510091727 20 23 0.0 0.0 0.00 0.00 0.00 99 1014.5
20260510091225 20 11 0.0 0.0 0.00 0.00 0.00 99 1014.3
20260510090721 20 4 0.0 0.0 0.00 0.00 0.00 99 1014.2
20260510090218 20 4 0.0 0.0 0.00 0.00 0.00 99 1014.1
20260510085713 20 4 0.0 0.0 0.00 0.00 0.00 99 1014.2
20260510085208 20 13 0.0 0.0 0.00 0.00 0.00 99 1014.0
20260510084704 20 13 0.0 0.0 0.00 0.00 0.00 99 1013.9
20260510084202 20 18 0.0 0.0 0.00 0.00 0.00 99 1013.7
20260510083658 20 26 0.0 0.0 0.00 0.00 0.00 99 1013.9
20260510083155 20 23 0.0 0.0 0.00 0.00 0.00 99 1013.9
20260510082651 21 18 0.0 0.0 0.00 0.00 0.00 99 1013.9
20260510082147 20 11 0.0 0.0 0.00 0.00 0.00 99 1013.7
20260510081642 20 4 0.0 0.0 0.00 0.00 0.00 99 1013.6
20260510081138 20 357 0.0 0.0 0.00 0.00 0.00 99 1014.0
20260510080637 21 359 0.0 0.0 0.00 0.00 0.00 99 1013.8
20260510080134 21 8 0.0 0.0 0.00 0.00 0.00 99 1013.6
20260510075631 21 6 0.0 0.0 0.00 0.00 0.00 99 1013.7
20260510075129 20 6 0.0 0.0 0.00 0.00 0.00 99 1013.5
20260510074625 20 23 0.0 0.0 0.00 0.00 0.00 99 1013.6
20260510074121 20 19 0.0 0.0 0.00 0.00 0.00 99 1013.3
20260510073617 20 51 0.0 0.0 0.00 0.00 0.00 99 1013.5
20260510073114 20 18 0.0 0.0 0.00 0.00 0.00 99 1013.8
20260510072611 20 3 0.0 0.0 0.00 0.00 0.00 99 1013.7
20260510072107 20 359 0.0 0.0 0.00 0.00 0.00 99 1013.9
20260510071603 20 3 0.0 0.0 0.00 0.00 0.00 99 1013.9
20260510071101 20 3 0.0 0.0 0.00 0.00 0.00 99 1013.9
20260510070557 20 3 0.0 0.0 0.00 0.00 0.00 99 1013.9
20260510070055 20 17 0.0 0.0 0.00 0.00 0.00 99 1013.6
20260510065551 20 10 0.0 0.0 0.00 0.00 0.00 99 1013.6
20260510065047 20 3 0.0 0.0 0.00 0.00 0.00 99 1014.0
20260510064543 20 3 0.0 0.0 0.00 0.00 0.00 99 1013.9
20260510064040 20 3 0.0 0.0 0.00 0.00 0.00 99 1013.7
20260510063537 20 6 0.0 0.0 0.00 0.00 0.00 99 1013.8
20260510063035 20 13 0.0 0.0 0.00 0.00 0.00 99 1013.7
20260510062530 20 356 0.0 0.0 0.00 0.00 0.00 99 1013.9
20260510062025 20 10 0.0 0.0 0.00 0.00 0.00 99 1013.8
20260510061522 20 25 0.0 0.0 0.00 0.00 0.00 99 1013.8
20260510061019 20 16 0.0 0.0 0.00 0.00 0.00 99 1014.0
20260510060515 20 35 0.0 1.6 0.00 0.00 0.00 99 1014.3
20260510060011 20 356 0.0 0.0 0.00 0.00 0.00 99 1014.0
20260510055508 20 196 1.6 3.2 0.00 0.00 0.00 99 1014.1
20260510055006 20 46 0.0 0.0 0.00 0.00 0.00 99 1014.1
20260510054501 20 26 0.0 1.6 0.00 0.00 0.00 99 1013.8
20260510053956 20 50 1.6 1.6 0.00 0.00 0.00 99 1014.0
20260510053451 20 108 3.2 3.2 0.00 0.00 0.00 99 1014.1
20260510052948 20 184 3.2 3.2 0.00 0.00 0.00 99 1014.4
20260510052444 20 74 1.6 3.2 0.00 0.00 0.00 99 1014.5
20260510051941 20 148 1.6 1.6 0.00 0.00 0.00 99 1014.5
20260510051437 20 97 1.6 3.2 0.00 0.00 0.00 99 1014.5
20260510050933 20 31 0.0 0.0 0.00 0.00 0.00 99 1014.7
20260510050430 20 22 0.0 0.0 0.00 0.00 0.00 99 1014.8
20260510045927 20 20 0.0 0.0 0.00 0.00 0.00 99 1014.5
20260510045425 20 17 0.0 0.0 0.00 0.00 0.00 99 1014.6
20260510044921 20 2 0.0 0.0 0.00 0.00 0.00 99 1015.0
20260510044418 20 18 0.0 0.0 0.00 0.00 0.00 99 1014.6
20260510043915 20 45 0.0 1.6 0.00 0.00 0.00 99 1014.7
20260510043411 20 18 0.0 0.0 0.00 0.00 0.00 99 1014.9
20260510042909 20 15 0.0 0.0 0.00 0.00 0.00 99 1014.7
20260510042405 20 17 0.0 0.0 0.00 0.00 0.00 99 1014.9
20260510041901 20 10 0.0 0.0 0.00 0.00 0.00 99 1014.9
20260510041358 20 24 0.0 0.0 0.00 0.00 0.00 99 1014.9
20260510040855 20 31 0.0 0.0 0.00 0.00 0.00 99 1015.0
20260510040352 20 15 0.0 0.0 0.00 0.00 0.00 99 1015.1
20260510035848 20 24 0.0 0.0 0.00 3.78 3.78 99 1015.0
20260510035344 20 16 0.0 0.0 0.00 3.78 3.78 99 1015.0
20260510034839 20 23 0.0 0.0 0.00 3.78 3.78 99 1015.1
20260510034337 20 19 0.0 0.0 0.00 3.78 3.78 99 1015.1
20260510033834 20 18 0.0 1.6 0.00 3.78 3.78 99 1015.3
20260510033330 20 14 0.0 0.0 0.00 3.78 3.78 99 1015.1
20260510032827 20 16 0.0 0.0 0.00 3.78 3.78 99 1015.0
20260510032324 20 6 0.0 0.0 0.00 3.78 3.78 99 1015.0
20260510031819 20 25 0.0 0.0 0.00 3.78 3.78 99 1014.8
20260510031315 20 16 0.0 0.0 0.00 3.78 3.78 99 1014.9
20260510030809 20 346 0.0 0.0 0.00 3.78 3.78 99 1014.9
20260510030306 20 12 0.0 0.0 0.00 3.78 3.78 99 1014.7
20260510025803 20 12 0.0 0.0 0.00 3.78 3.78 99 1014.9
20260510025301 20 13 0.0 0.0 0.00 3.78 3.78 99 1014.9
20260510024757 20 359 0.0 0.0 0.00 3.78 3.78 99 1015.0
20260510024254 20 356 0.0 0.0 0.00 3.78 3.78 99 1015.0
20260510023750 20 311 1.6 1.6 0.00 3.78 3.78 99 1014.9
20260510023247 20 13 0.0 0.0 0.00 3.78 3.78 99 1014.7
20260510022744 20 13 0.0 0.0 0.00 3.78 3.78 99 1014.6
20260510022244 20 341 0.0 1.6 0.00 3.78 3.78 99 1014.3
20260510021743 20 14 0.0 0.0 0.00 3.78 3.78 99 1014.5
20260510021241 20 4 0.0 0.0 0.00 3.78 3.78 99 1014.4
20260510020736 20 294 1.6 3.2 0.00 3.78 3.78 99 1014.3
20260510020226 20 358 0.0 0.0 0.00 3.78 3.78 99 1014.2
20260510015722 20 16 0.0 0.0 0.00 3.78 3.78 99 1013.9
20260510015218 20 15 0.0 0.0 0.00 3.78 3.78 99 1013.9
20260510014714 20 7 0.0 0.0 0.00 3.78 3.78 99 1014.1
20260510014211 20 5 0.0 0.0 0.00 3.78 3.78 99 1014.2
20260510013711 20 4 0.0 0.0 0.00 3.78 3.78 99 1014.0
20260510013207 20 348 0.0 0.0 0.00 3.78 3.78 99 1014.0
20260510012702 20 341 0.0 1.6 0.00 3.78 3.78 99 1013.7
20260510012157 20 359 0.0 0.0 0.00 3.78 3.78 99 1013.7
20260510011652 20 19 0.0 0.0 0.00 3.78 3.78 99 1013.7
20260510011149 20 14 1.6 1.6 0.00 3.78 3.78 99 1013.9
20260510010644 20 18 1.6 1.6 0.00 3.78 3.78 99 1013.6
20260510010142 20 11 0.0 0.0 0.00 3.78 3.78 99 1013.8
20260510005638 20 314 0.0 0.0 0.00 3.78 3.78 99 1013.8
20260510005135 20 18 0.0 0.0 0.00 3.78 3.78 99 1013.6
20260510004633 20 15 1.6 1.6 0.00 3.78 3.78 99 1013.7
20260510004131 20 15 0.0 0.0 0.00 3.78 3.78 99 1013.9
20260510003628 20 341 0.0 1.6 0.00 3.78 3.78 99 1013.9
20260510003124 20 356 0.0 0.0 0.00 3.78 3.78 99 1013.5
20260510002624 20 12 0.0 0.0 0.00 3.78 3.78 99 1013.3
20260510002121 20 29 0.0 0.0 0.00 3.78 3.78 99 1013.2
20260510001618 20 29 0.0 0.0 0.00 3.78 3.78 99 1013.6
20260510001117 20 29 0.0 0.0 0.00 3.78 3.78 99 1013.6
20260510000616 20 29 0.0 0.0 0.00 3.78 3.78 99 1013.7
20260510000114 20 29 0.0 0.0 0.00 3.78 3.78 99 1013.6
20260509235610 20 29 0.0 0.0 0.00 3.78 3.78 99 1014.2
20260509235107 20 2 0.0 0.0 0.00 3.78 3.78 99 1014.1
20260509234603 20 242 1.6 1.6 0.00 3.78 3.78 99 1014.2
20260509234101 20 332 1.6 1.6 0.00 3.78 3.78 99 1013.9
20260509233558 20 40 1.6 1.6 0.18 3.78 3.78 99 1013.9
20260509233055 20 27 0.0 0.0 0.18 3.78 3.78 99 1014.0
20260509232552 20 65 1.6 1.6 0.30 3.78 3.78 99 1014.4
20260509232049 21 320 1.6 1.6 0.61 3.76 3.76 99 1014.4
20260509231545 21 9 1.6 1.6 0.30 3.71 3.71 99 1014.5
20260509231043 21 343 1.6 1.6 0.00 3.66 3.66 99 1014.9
20260509230539 21 296 1.6 3.2 0.00 3.66 3.66 99 1014.6
20260509230037 21 348 1.6 1.6 0.00 3.66 3.66 99 1014.5
20260509225532 21 328 1.6 1.6 0.00 3.66 3.66 99 1014.4
20260509225028 21 4 0.0 0.0 0.00 3.66 3.66 99 1014.2
20260509224524 21 66 1.6 1.6 0.00 3.66 3.66 99 1014.2
20260509224021 21 347 1.6 1.6 0.00 3.66 3.66 99 1014.0
20260509223517 21 355 0.0 1.6 0.00 3.66 3.66 99 1014.1
20260509223016 21 355 0.0 1.6 0.00 3.66 3.66 99 1014.1
20260509222511 21 349 1.6 1.6 0.00 3.66 3.66 99 1013.8
20260509222007 21 8 0.0 0.0 0.00 3.66 3.66 99 1013.9
20260509221503 21 13 0.0 0.0 0.00 3.66 3.66 99 1013.9
20260509220959 21 13 0.0 0.0 0.00 3.66 3.66 99 1013.9
20260509220455 21 1 0.0 0.0 0.00 3.66 3.66 99 1013.9
20260509215951 21 347 0.0 0.0 0.00 3.66 3.66 99 1013.9
20260509215447 21 8 0.0 0.0 0.00 3.66 3.66 99 1013.7
20260509214945 20 8 0.0 0.0 0.13 3.66 3.66 99 1013.5
20260509214442 20 10 0.0 0.0 0.13 3.66 3.66 99 1013.7
20260509213938 20 16 0.0 0.0 0.00 3.63 3.63 99 1013.6
20260509213434 20 22 0.0 0.0 0.00 3.63 3.63 99 1013.6
20260509212931 20 8 1.6 1.6 0.00 3.63 3.63 99 1013.5
20260509212429 20 11 0.0 1.6 0.00 3.63 3.63 99 1013.7
20260509211925 20 7 0.0 0.0 0.00 3.63 3.63 99 1013.6
20260509211420 20 15 0.0 0.0 0.00 3.63 3.63 99 1013.3
20260509210917 20 15 0.0 0.0 0.00 3.63 3.63 99 1013.4
20260509210414 20 2 0.0 1.6 0.00 3.63 3.63 99 1013.5
20260509205909 20 21 1.6 1.6 0.00 3.63 3.63 99 1013.5
20260509205404 21 23 4.8 8.0 0.00 3.63 3.63 99 1013.7
20260509204900 21 23 0.0 0.0 0.00 3.63 3.63 99 1013.6
20260509204357 21 9 1.6 1.6 0.00 3.63 3.63 99 1013.5
20260509203853 21 35 1.6 1.6 0.00 3.63 3.63 99 1013.4
20260509203349 21 11 3.2 3.2 0.00 3.63 3.63 99 1013.5
20260509202847 21 8 0.0 0.0 0.00 3.63 3.63 99 1013.4
20260509202342 21 9 0.0 0.0 0.00 3.63 3.63 99 1013.4
20260509201838 20 21 0.0 0.0 0.00 3.63 3.63 99 1013.4
20260509201334 20 11 0.0 1.6 0.00 3.63 3.63 99 1013.6
20260509200830 20 10 3.2 3.2 0.00 3.63 3.63 99 1013.5
20260509200326 20 5 1.6 1.6 0.00 3.63 3.63 99 1013.6
20260509195823 20 335 1.6 3.2 0.00 3.63 3.63 99 1013.8
20260509195322 20 22 1.6 1.6 0.00 3.63 3.63 99 1013.9
20260509194822 20 276 4.8 4.8 0.00 3.63 3.63 99 1013.7
20260509194318 21 352 4.8 4.8 0.00 3.63 3.63 99 1013.9
20260509193815 21 15 3.2 3.2 0.00 3.63 3.63 99 1013.9
20260509193315 21 346 4.8 4.8 0.18 3.63 3.63 99 1013.8
20260509192811 22 323 9.7 12.9 0.36 3.63 3.63 98 1014.2
20260509192307 22 348 1.6 1.6 0.30 3.61 3.61 98 1014.1
20260509191802 22 317 1.6 3.2 0.61 3.58 3.58 98 1013.9
20260509191259 22 338 1.6 1.6 3.66 3.56 3.56 98 1013.9
20260509190755 22 9 0.0 0.0 8.51 3.48 3.48 98 1014.1
20260509190252 22 334 8.0 9.7 11.28 3.00 3.00 98 1014.1
20260509185749 22 9 3.2 3.2 8.51 2.11 2.11 97 1014.2
20260509185245 23 272 8.0 9.7 3.78 0.99 0.99 97 1014.2
20260509184743 23 347 3.2 3.2 3.25 0.64 0.64 96 1013.7
20260509184241 25 265 1.6 3.2 1.98 0.36 0.36 94 1013.6
20260509183737 25 262 1.6 3.2 0.43 0.10 0.10 91 1013.4
20260509183232 25 325 1.6 1.6 0.00 0.03 0.03 88 1013.3
20260509182728 25 10 0.0 0.0 0.00 0.03 0.03 87 1013.5
20260509182226 25 299 4.8 4.8 0.00 0.03 0.03 87 1013.8
20260509181723 25 305 1.6 3.2 0.00 0.03 0.03 86 1013.7
20260509181220 26 9 4.8 4.8 0.00 0.03 0.03 86 1013.6
20260509180717 26 318 4.8 4.8 0.00 0.03 0.03 85 1013.6
20260509180213 26 352 3.2 3.2 0.00 0.03 0.03 84 1013.5
20260509175710 26 345 3.2 3.2 0.00 0.03 0.03 84 1013.5
20260509175206 26 192 6.4 8.0 0.00 0.03 0.03 83 1013.6
20260509174702 26 355 1.6 1.6 0.00 0.03 0.03 83 1013.7
20260509174157 26 268 6.4 8.0 0.00 0.03 0.03 85 1013.9
20260509173654 26 319 4.8 4.8 0.00 0.03 0.03 86 1013.8
20260509173150 26 333 3.2 3.2 0.00 0.03 0.03 86 1014.1
20260509172646 25 238 3.2 3.2 0.00 0.03 0.03 87 1014.0
20260509172142 25 199 4.8 4.8 0.00 0.03 0.03 87 1014.1
20260509171638 25 290 4.8 8.0 0.00 0.03 0.03 87 1014.2
20260509171134 26 262 6.4 8.0 0.00 0.03 0.03 87 1014.1
20260509170631 26 307 1.6 3.2 0.00 0.03 0.03 87 1014.2
20260509170127 26 351 3.2 3.2 0.00 0.03 0.03 86 1013.8
20260509165626 26 294 1.6 1.6 0.00 0.03 0.03 86 1013.8
20260509165122 26 282 4.8 4.8 0.00 0.03 0.03 85 1014.1
20260509164617 26 312 0.0 1.6 0.00 0.03 0.03 86 1014.1
20260509164113 25 16 0.0 0.0 0.00 0.03 0.03 87 1014.1
20260509163612 25 230 3.2 3.2 0.00 0.03 0.03 86 1014.1
20260509163107 25 6 0.0 0.0 0.00 0.03 0.03 87 1014.2
20260509162604 25 30 1.6 1.6 0.00 0.03 0.03 88 1014.2
20260509162059 25 6 0.0 1.6 0.00 0.03 0.03 89 1014.1
20260509161551 25 159 3.2 3.2 0.00 0.03 0.03 87 1014.3
20260509161051 25 43 3.2 3.2 0.00 0.03 0.03 88 1014.3
20260509160547 24 62 3.2 3.2 0.00 0.03 0.03 88 1014.3
20260509160042 24 357 1.6 1.6 0.00 0.03 0.03 89 1014.1
20260509155539 24 29 0.0 1.6 0.00 0.03 0.03 89 1014.1
20260509155035 23 36 1.6 1.6 0.00 0.03 0.03 89 1014.3
20260509154531 23 4 0.0 0.0 0.00 0.03 0.03 90 1014.5
20260509154029 23 41 1.6 3.2 0.00 0.03 0.03 91 1014.4
20260509153526 23 6 1.6 1.6 0.00 0.03 0.03 91 1014.3
20260509153023 23 313 1.6 1.6 0.00 0.03 0.03 91 1014.4
20260509152519 23 12 0.0 0.0 0.00 0.03 0.03 91 1014.0
20260509152015 23 7 1.6 1.6 0.00 0.03 0.03 92 1014.1
20260509151512 23 2 0.0 0.0 0.00 0.03 0.03 92 1014.0
20260509151010 23 5 3.2 3.2 0.00 0.03 0.03 91 1013.9
20260509150507 23 28 0.0 0.0 0.00 0.03 0.03 92 1014.1
20260509150006 23 354 1.6 1.6 0.00 0.03 0.03 92 1014.1
20260509145501 23 6 0.0 0.0 0.00 0.03 0.03 91 1014.4
20260509144956 23 14 0.0 0.0 0.00 0.03 0.03 91 1014.5
20260509144453 23 14 0.0 0.0 0.00 0.03 0.03 91 1014.6
20260509143950 23 287 1.6 1.6 0.00 0.03 0.03 91 1014.2
20260509143447 23 3 0.0 1.6 0.00 0.03 0.03 92 1014.5
20260509142944 22 316 1.6 1.6 0.00 0.03 0.03 92 1014.3
20260509142440 22 302 3.2 3.2 0.00 0.03 0.03 92 1014.4
20260509141936 22 12 0.0 0.0 0.00 0.03 0.03 94 1014.4
20260509141433 21 339 0.0 1.6 0.00 0.03 0.03 94 1014.2
20260509140930 21 101 1.6 1.6 0.00 0.03 0.03 95 1014.0
20260509140426 21 341 1.6 1.6 0.00 0.03 0.03 97 1014.5
20260509135924 21 5 0.0 0.0 0.00 0.03 0.03 98 1014.3
20260509135421 21 9 0.0 0.0 0.00 0.03 0.03 99 1014.2
20260509134919 20 22 0.0 1.6 0.00 0.03 0.03 99 1013.9
20260509134416 20 75 0.0 0.0 0.00 0.03 0.03 99 1014.2
20260509133913 20 29 1.6 1.6 0.00 0.03 0.03 99 1014.2
20260509133410 20 9 1.6 1.6 0.00 0.03 0.03 99 1014.4
20260509132908 20 7 0.0 0.0 0.00 0.03 0.03 99 1014.2
20260509132406 20 18 0.0 1.6 0.00 0.03 0.03 99 1014.1
20260509131903 20 49 1.6 1.6 0.00 0.03 0.03 99 1014.1
20260509131400 20 60 0.0 1.6 0.00 0.03 0.03 99 1013.9
20260509130856 20 304 1.6 3.2 0.00 0.03 0.03 99 1014.3
20260509130351 20 4 0.0 0.0 0.00 0.03 0.03 99 1014.2
20260509125849 20 2 0.0 0.0 0.00 0.03 0.03 99 1014.2
20260509125345 20 4 0.0 0.0 0.00 0.03 0.03 99 1014.0
20260509124841 20 13 0.0 0.0 0.00 0.03 0.03 99 1014.2
20260509124338 19 355 1.6 1.6 0.00 0.03 0.03 99 1014.1
20260509123836 19 351 1.6 1.6 0.00 0.03 0.03 99 1014.1
20260509123333 19 3 0.0 0.0 0.00 0.03 0.03 99 1014.0
20260509122829 19 288 3.2 3.2 0.00 0.03 0.03 99 1013.9
20260509122326 19 26 0.0 0.0 0.00 0.03 0.03 99 1013.8
20260509121823 19 348 0.0 0.0 0.00 0.03 0.03 99 1014.0
20260509121320 19 354 0.0 0.0 0.00 0.03 0.03 99 1013.6
20260509120818 19 352 0.0 0.0 0.00 0.03 0.03 99 1013.7
20260509120316 19 9 0.0 0.0 0.00 0.03 0.03 99 1013.6
20260509115814 19 5 0.0 0.0 0.00 0.03 0.03 99 1013.7
20260509115311 18 17 0.0 0.0 0.00 0.03 0.03 99 1013.5
20260509114809 18 3 0.0 1.6 0.00 0.03 0.03 99 1013.5
20260509114307 18 13 0.0 0.0 0.00 0.03 0.03 99 1013.3
20260509113806 18 11 0.0 0.0 0.00 0.03 0.03 99 1013.3
20260509113302 18 8 0.0 0.0 0.00 0.03 0.03 99 1013.2
20260509112759 18 3 0.0 1.6 0.00 0.03 0.03 99 1013.0
20260509112256 18 6 1.6 1.6 0.00 0.03 0.03 99 1012.7
20260509111753 18 21 1.6 1.6 0.00 0.03 0.03 99 1012.7
20260509111250 18 3 1.6 1.6 0.00 0.03 0.03 99 1012.4
20260509110747 18 55 1.6 3.2 0.00 0.03 0.03 99 1012.3
20260509110244 18 6 0.0 0.0 0.00 0.03 0.03 99 1012.3
20260509105742 18 5 1.6 1.6 0.00 0.03 0.03 99 1012.4
20260509105239 18 25 0.0 0.0 0.00 0.03 0.03 99 1012.4
20260509104736 18 357 0.0 1.6 0.00 0.03 0.03 99 1012.2
20260509104233 18 16 1.6 1.6 0.00 0.03 0.03 99 1012.2
20260509103731 18 35 3.2 4.8 0.00 0.03 0.03 99 1012.0
20260509103228 18 36 1.6 1.6 0.00 0.03 0.03 99 1012.0
20260509102726 18 262 3.2 3.2 0.00 0.03 0.03 99 1011.6
20260509102223 18 257 3.2 3.2 0.00 0.03 0.03 99 1012.0
20260509101720 18 3 1.6 1.6 0.00 0.03 0.03 99 1011.8
20260509101216 18 202 4.8 4.8 0.00 0.03 0.03 99 1012.0